Weather History for Mildenhall RAF, United Kingdom

Change the Weather History Date:

Thursday, October 11, 2012

  Actual Average (EGSC) Record (EGSC)
Temperature  
Mean Temperature 50 °F -  
Max Temperature 59 °F 58 °F 71 °F (2005)
Min Temperature 41 °F 47 °F 37 °F (1996)
Degree Days  
Heating Degree Days 15    
Moisture  
Dew Point 54 °F    
Average Humidity 96    
Maximum Humidity 100    
Minimum Humidity 82    
Precipitation  
Precipitation 0.04 in - - ()
Sea Level Pressure  
Sea Level Pressure 29.60 in    
Wind  
Wind Speed 11 mph ()    
Max Wind Speed 18 mph    
Max Gust Speed 22 mph    
Visibility 5.6 miles    
Events Rain    
Averages and records for this station are not official NWS values.
T = Trace of Precipitation, MM = Missing Value Source: Averaged Metar Reports

Daily Weather History Graph

Daily Weather History Graph

Search for Another Location

Airport:

Trip Planner

Search our weather history database for the weather conditions in past years. The results will help you decide how hot, cold, wet, or windy it might be!

Date:

Astronomy

Oct. 11, 2012 Rise Set
Actual Time 7:16 AM BST 6:11 PM BST
Civil Twilight 6:42 AM BST 6:45 PM BST
Nautical Twilight 6:03 AM BST 7:25 PM BST
Astronomical Twilight 5:23 AM BST 8:04 PM BST
Moon 2:07 AM BST (10/11) 4:06 PM BST (10/11)
Length of Visible Light 12h 03m
Length of Day
10h 54m
Waning Crescent, 20% of the Moon is Illuminated
Oct 11
Waning Crescent
Oct 15
New
Oct 22
First Quarter
Oct 29
Full
Nov 7
Last Quarter

Hourly Weather History & Observations

Time (BST) Temp. Windchill Dew Point Humidity Pressure Visibility Wind Dir Wind Speed Gust Speed Precip Events Conditions
1:58 AM 42.4 °F 38.8 °F 42.4 °F 100% 29.88 in 6.2 mi SE 5.8 mph - N/A   Clear
2:58 AM 41.9 °F 37.5 °F 41.9 °F 100% 29.85 in 6.2 mi East 6.9 mph - N/A   Clear
3:58 AM 41.2 °F 37.3 °F 41.2 °F 100% 29.83 in 6.2 mi ESE 5.8 mph - N/A   Clear
4:58 AM 42.6 °F 39.9 °F 42.6 °F 100% 29.81 in 6.2 mi East 4.6 mph - N/A   Mostly Cloudy
5:58 AM 44.4 °F 42.0 °F 44.4 °F 100% 29.79 in 6.2 mi East 4.6 mph - N/A   Overcast
6:58 AM 44.4 °F 41.2 °F 44.2 °F 99% 29.77 in 6.2 mi East 5.8 mph - N/A   Clear
7:58 AM 44.2 °F 40.3 °F 44.2 °F 100% 29.76 in 6.2 mi East 6.9 mph - N/A   Clear
8:58 AM 48.4 °F - 47.3 °F 96% 29.75 in 6.2 mi ESE 4.6 mph - N/A   Clear
9:58 AM 51.6 °F - 49.1 °F 91% 29.74 in 6.2 mi ESE 13.8 mph - N/A   Partly Cloudy
10:58 AM 56.1 °F - 51.4 °F 84% 29.71 in 6.2 mi SE 16.1 mph - N/A   Partly Cloudy
11:29 AM 57.2 °F - 53.6 °F 88% 29.70 in 6.2 mi SE 15.0 mph - N/A   Mostly Cloudy
11:40 AM 57.2 °F - 53.6 °F 88% 29.69 in 6.2 mi ESE 13.8 mph - N/A   Mostly Cloudy
11:58 AM 56.7 °F - 53.8 °F 90% 29.69 in 6.2 mi SE 12.7 mph - N/A   Overcast
12:09 PM 57.2 °F - 53.6 °F 88% 29.67 in 6.2 mi ESE 16.1 mph - N/A Rain Light Rain
12:22 PM 59.0 °F - 53.6 °F 82% 29.67 in 6.2 mi SE 18.4 mph - N/A   Overcast
12:49 PM 57.2 °F - 53.6 °F 88% 29.66 in 6.2 mi ESE 15.0 mph - N/A   Overcast
12:58 PM 58.3 °F - 53.8 °F 85% 29.66 in 6.2 mi ESE 16.1 mph - 0.00 in   Overcast
1:34 PM 59.0 °F - 53.6 °F 82% 29.64 in 6.2 mi ESE 15.0 mph 21.9 mph N/A   Overcast
1:58 PM 58.1 °F - 54.7 °F 88% 29.64 in 6.2 mi ESE 16.1 mph - N/A   Overcast
2:28 PM 59.0 °F - 55.4 °F 88% 29.62 in 6.2 mi ESE 15.0 mph 21.9 mph N/A Rain Light Rain
2:30 PM 59.0 °F - 55.4 °F 88% 29.62 in 6.2 mi SE 13.8 mph 21.9 mph N/A Rain Light Rain
2:34 PM 59.0 °F - 55.4 °F 88% 29.61 in 6.2 mi ESE 16.1 mph 21.9 mph N/A Rain Light Rain
2:37 PM 59.0 °F - 55.4 °F 88% 29.61 in 6.2 mi ESE 16.1 mph 21.9 mph N/A   Mostly Cloudy
2:58 PM 59.2 °F - 55.6 °F 88% 29.62 in 6.2 mi ESE 15.0 mph - 0.00 in   Mostly Cloudy
3:29 PM 59.0 °F - 55.4 °F 88% 29.60 in 6.2 mi SE 12.7 mph - N/A   Overcast
3:58 PM 57.9 °F - 56.1 °F 94% 29.60 in 6.2 mi SE 17.3 mph - N/A   Overcast
4:10 PM 57.2 °F - 57.2 °F 100% 29.59 in 6.2 mi SE 18.4 mph - N/A   Overcast
4:28 PM 57.2 °F - 57.2 °F 100% 29.59 in 6.2 mi SE 13.8 mph - N/A   Overcast
4:58 PM 56.5 °F - 56.5 °F 100% 29.59 in 6.2 mi ESE 15.0 mph - N/A   Overcast
4:59 PM 57.2 °F - 57.2 °F 100% 29.58 in 5.6 mi ESE 13.8 mph - N/A   Overcast
5:56 PM 55.4 °F - 55.4 °F 100% 29.56 in 3.7 mi ESE 13.8 mph - N/A   Overcast
5:58 PM 55.4 °F - 55.4 °F 100% 29.57 in 3.7 mi ESE 15.0 mph - N/A   Overcast
6:12 PM 55.4 °F - 55.4 °F 100% 29.56 in 2.5 mi ESE 11.5 mph - N/A   Overcast
6:22 PM 55.4 °F - 55.4 °F 100% 29.56 in 2.5 mi ESE 15.0 mph - N/A   Overcast
6:28 PM 55.4 °F - 55.4 °F 100% 29.56 in 3.1 mi ESE 13.8 mph - N/A   Overcast
6:31 PM 55.4 °F - 55.4 °F 100% 29.56 in 3.1 mi ESE 12.7 mph - N/A   Overcast
6:39 PM 55.4 °F - 55.4 °F 100% 29.56 in 2.5 mi ESE 13.8 mph - N/A   Overcast
6:46 PM 55.4 °F - 55.4 °F 100% 29.55 in 3.1 mi ESE 13.8 mph - N/A   Overcast
6:58 PM 55.9 °F - 55.9 °F 100% 29.56 in 3.7 mi ESE 12.7 mph - N/A   Overcast
7:15 PM 55.4 °F - 55.4 °F 100% 29.54 in 5.0 mi ESE 11.5 mph - N/A   Overcast
7:18 PM 55.4 °F - 55.4 °F 100% 29.54 in 5.0 mi ESE 10.4 mph - N/A   Overcast
7:40 PM 57.2 °F - 57.2 °F 100% 29.54 in 5.6 mi ESE 11.5 mph - N/A   Overcast
7:58 PM 56.7 °F - 56.7 °F 100% 29.54 in 5.6 mi ESE 13.8 mph - N/A   Overcast
8:22 PM 57.2 °F - 57.2 °F 100% 29.52 in 6.2 mi ESE 12.7 mph - N/A Rain Light Rain
8:23 PM 57.2 °F - 57.2 °F 100% 29.52 in 6.2 mi ESE 13.8 mph - N/A Rain Light Rain
8:31 PM 57.2 °F - 57.2 °F 100% 29.52 in 6.2 mi ESE 16.1 mph - N/A   Overcast
8:51 PM 57.2 °F - 57.2 °F 100% 29.51 in 6.2 mi ESE 12.7 mph - N/A Rain Light Rain
8:57 PM 57.2 °F - 57.2 °F 100% 29.51 in 5.0 mi ESE 15.0 mph - N/A Rain Light Rain
8:58 PM 57.2 °F - 57.2 °F 100% 29.52 in 5.0 mi ESE 15.0 mph - 0.00 in Rain Light Rain
8:59 PM 57.2 °F - 57.2 °F 100% 29.51 in 5.0 mi ESE 15.0 mph - N/A Rain Light Rain
9:10 PM 57.2 °F - 57.2 °F 100% 29.51 in 5.0 mi ESE 12.7 mph - N/A Rain Light Rain
9:19 PM 57.2 °F - 57.2 °F 100% 29.51 in 5.0 mi ESE 13.8 mph - N/A Rain Light Rain
9:43 PM 57.2 °F - 57.2 °F 100% 29.50 in 5.0 mi ESE 13.8 mph - N/A Rain Light Rain
9:44 PM 57.2 °F - 57.2 °F 100% 29.50 in 5.6 mi ESE 13.8 mph - N/A Rain Light Rain
9:45 PM 57.2 °F - 57.2 °F 100% 29.50 in 5.6 mi ESE 12.7 mph - N/A   Overcast
9:52 PM 57.2 °F - 57.2 °F 100% 29.50 in 6.2 mi ESE 12.7 mph - N/A Rain Light Rain
9:58 PM 57.4 °F - 57.4 °F 100% 29.51 in 6.2 mi ESE 15.0 mph - 0.04 in Rain Light Rain
10:04 PM 57.2 °F - 57.2 °F 100% 29.50 in 6.2 mi ESE 12.7 mph - N/A Rain Light Rain
10:05 PM 57.2 °F - 57.2 °F 100% 29.50 in 6.2 mi ESE 13.8 mph - N/A   Overcast
10:51 PM 57.2 °F - 57.2 °F 100% 29.48 in 6.2 mi ESE 13.8 mph - N/A   Overcast
10:58 PM 57.6 °F - 57.6 °F 100% 29.49 in 6.2 mi SE 12.7 mph - 0.00 in   Overcast
11:06 PM 57.2 °F - 57.2 °F 100% 29.48 in 6.2 mi SE 10.4 mph - N/A   Overcast
11:58 PM 58.1 °F - 58.1 °F 100% 29.47 in 6.2 mi SE 10.4 mph - N/A   Overcast